星链-32828 (STARLINK-32828)

导读

STARLINK-32828是美国太空探索技术公司(SpaceX)星链星座的一员,于2025年2月18日发射入轨。星链项目旨在打造全球卫星互联网星座,为全球偏远地区、海洋等网络覆盖薄弱区域提供高速低延迟的互联网服务,该卫星承担着拓展星座网络覆盖范围、提升服务容量的任务。

Basic Information
目录编号:
63045
目录名称:
STARLINK-32828
国际标识:
2025-034S
轨道中心:
EARTH
卫星名称:
星链-32828
卫星全名:
星链-32828 (STARLINK-32828)
卫星状态:
在轨 (已飞行563 天)
发射日期:
2025-02-18 UTC
国别 :
美国 (US)
星等 :
--
Orbit Information
数据来源 国际轨道数据 AOE轨道数据
星历时间 2026-09-04T02:53:39+0800
11小时前
查看轨道信息
2026-08-29T17:00:00+0800
5天前
查看轨道信息
半长轴 6840.801km 6840.839km
偏心率 0.0001323 0.0001265
轨道倾角 53.157° 53.158°
近地点辐角 97.895° 104.903°
升交点赤经 161.586° 186.884°
平近点角 262.220° 222.212°
近地点 461.758km 461.836km
远地点 463.57km 463.568km
周期 93.847分钟 93.848分钟
每日圈数 15.344134 15.344007
Detailed Information
固有亮度:
5
最大亮度:
2.5
卫星平台:
Starlink V1.0
覆盖范围:
全球
运营商:
太空探索技术公司
运营商所在国:
美国
制造商(研发单位):
太空探索技术公司
制造商所在国:
美国
使用方式:
暂无
Satellite Introduction
Starlink 计划是 SpaceX 推出的全球卫星互联网项目,通过发射低轨道卫星,为全球尤其是偏远地区提供高速、低延迟的互联网服务。自 2019 年起,Starlink 已部署数千颗卫星,旨在缩小全球数字鸿沟,推动互联网普及。该项目还为军事、航空等行业提供通信支持,带来广泛经济效益。
2D Orbit Map
3D Orbit Map
Orbit Altitude Analysis Chart
Orbit Inclination Analysis Chart
Orbit Comprehensive Analysis Chart
View Comprehensive Chart
Conjunction Data List
Event ID Objects TCA Miss Dist (km) Collision Risk Probability Collision Risk Index (CRI) Action
CDM_260904-203802-822006-304521
TANSUO 1 (28220)
2026-09-04T
20:38:21+0000
1.204 km
极远距离
1.420263E-5 中风险 0.58
CDM_260904-195102-822006-304521
TANSUO 1 (28220)
2026-09-04T
19:51:24+0000
1.689 km
极远距离
4.599655E-6 低风险 0.48
CDM_260905-141705-468606-304521
OBJECT E (54686)
2026-09-05T
14:17:26+0000
2.882 km
极远距离
1.213896E-6 低风险 0.37
CDM_260903-195705-085106-304521
2026-09-03T
19:57:36+0000
2.910 km
极远距离
9.334347E-7 极低风险 0.34